Weather History for Kimball, NE

Change the Weather History Date:

Wednesday, May 22, 2013

  Actual Average (KSNY) Record (KSNY)
Temperature  
Mean Temperature 52 °F 59 °F  
Max Temperature 68 °F 73 °F 98 °F (2012)
Min Temperature 36 °F 46 °F 29 °F (1974)
Degree Days  
Heating Degree Days 13 6  
Month to date heating degree days 203  
Since 1 July heating degree days 6115  
Cooling Degree Days 0 1  
Month to date cooling degree days 13  
Year to date cooling degree days 14  
Growing Degree Days 2 (Base 50)    
Moisture  
Dew Point 39 °F    
Average Humidity 65    
Maximum Humidity 93    
Minimum Humidity 33    
Precipitation  
Precipitation 0.00 in 0.10 in 1.00 in (1978)
Month to date precipitation 2.12  
Year to date precipitation 5.79  
Sea Level Pressure  
Sea Level Pressure 29.98 in    
Wind  
Wind Speed 7 mph (NNE)    
Max Wind Speed 18 mph    
Max Gust Speed 24 mph    
Visibility 10 miles    
Events      
T = Trace of Precipitation, MM = Missing Value Source: NWS Daily Summary

Daily Weather History Graph

Daily Weather History Graph

Search for Another Location

Airport:

Trip Planner

Search our weather history database for the weather conditions in past years. The results will help you decide how hot, cold, wet, or windy it might be!

Date:

Astronomy

May. 22, 2013 Rise Set
Actual Time 6:30 AM CDT 9:13 PM CDT
Civil Twilight 5:58 AM CDT 9:45 PM CDT
Nautical Twilight 5:17 AM CDT 10:25 PM CDT
Astronomical Twilight 4:31 AM CDT 11:12 PM CDT
Moon 6:37 PM CDT (5/22) 4:37 AM CDT (5/22)
Length of Visible Light 15h 47m
Length of Day
14h 43m
Waxing Gibbous, 91% of the Moon is Illuminated
May 22
Waxing Gibbous
May 24
Full
May 31
Last Quarter
Jun 8
New
Jun 16
First Quarter

Hourly Weather History & Observations

Time (CDT) Temp. Windchill Dew Point Humidity Pressure Visibility Wind Dir Wind Speed Gust Speed Precip Events Conditions
12:15 AM 44.1 °F 40.1 °F 36.9 °F 76% 29.97 in 10.0 mi North 6.9 mph - N/A   Clear
12:35 AM 43.3 °F 39.9 °F 36.7 °F 77% 29.97 in 10.0 mi North 5.8 mph - N/A   Clear
12:55 AM 42.3 °F 37.3 °F 36.7 °F 81% 29.97 in 10.0 mi North 8.1 mph - N/A   Clear
1:15 AM 42.4 °F 40.7 °F 36.7 °F 80% 29.97 in 10.0 mi NNW 3.5 mph - N/A   Clear
1:35 AM 41.0 °F - 36.3 °F 83% 29.97 in 10.0 mi Calm Calm - N/A   Clear
1:55 AM 41.4 °F 36.2 °F 36.9 °F 84% 29.98 in 10.0 mi SW 8.1 mph - N/A   Clear
2:15 AM 41.4 °F 38.4 °F 36.5 °F 83% 29.98 in 10.0 mi WNW 4.6 mph - N/A   Clear
3:01 AM 39.2 °F 34.2 °F 35.6 °F 87% 29.98 in 10.0 mi WNW 6.9 mph - N/A   Clear
3:21 AM 41.0 °F 36.4 °F 35.6 °F 81% 29.97 in 10.0 mi WNW 6.9 mph - N/A   Clear
3:41 AM 37.4 °F 32.8 °F 35.6 °F 93% 29.96 in 10.0 mi WNW 5.8 mph - N/A   Clear
4:01 AM 37.4 °F 32.1 °F 35.6 °F 93% 29.96 in 10.0 mi WNW 6.9 mph - N/A   Clear
4:21 AM 37.4 °F 32.1 °F 35.6 °F 93% 29.95 in 10.0 mi WNW 6.9 mph - N/A   Clear
4:41 AM 39.2 °F 33.6 °F 35.6 °F 87% 29.94 in 10.0 mi NW 8.1 mph - N/A   Clear
4:55 AM 37.9 °F 30.9 °F 34.7 °F 88% 29.94 in 10.0 mi WNW 10.4 mph - N/A   Clear
5:00 AM 37.4 °F 30.8 °F 35.6 °F 93% 29.94 in 10.0 mi WNW 9.2 mph - N/A   Clear
5:15 AM 37.0 °F 31.6 °F 34.7 °F 91% 29.94 in 10.0 mi NW 6.9 mph - N/A   Clear
5:35 AM 37.9 °F 32.1 °F 34.9 °F 89% 29.94 in 10.0 mi NW 8.1 mph - N/A   Clear
5:55 AM 37.4 °F 33.8 °F 34.0 °F 87% 29.94 in 10.0 mi North 4.6 mph - N/A   Clear
6:15 AM 37.4 °F 32.1 °F 34.5 °F 89% 29.94 in 10.0 mi NW 6.9 mph - N/A   Clear
6:35 AM 37.0 °F 31.6 °F 34.3 °F 90% 29.94 in 10.0 mi NNW 6.9 mph - N/A   Clear
6:55 AM 36.9 °F 32.2 °F 34.2 °F 90% 29.94 in 10.0 mi NW 5.8 mph - N/A   Clear
7:15 AM 38.8 °F 33.8 °F 35.8 °F 89% 29.95 in 10.0 mi West 6.9 mph - N/A   Clear
7:35 AM 40.5 °F - 36.7 °F 86% 29.95 in 10.0 mi Calm Calm - N/A   Clear
7:55 AM 42.1 °F 40.2 °F 37.6 °F 84% 29.96 in 10.0 mi NW 3.5 mph - N/A   Clear
8:15 AM 44.6 °F 42.2 °F 38.5 °F 79% 29.97 in 10.0 mi NNW 4.6 mph - N/A   Clear
8:35 AM 45.3 °F 42.3 °F 39.2 °F 79% 29.97 in 10.0 mi North 5.8 mph - N/A   Clear
8:55 AM 46.6 °F - 39.9 °F 78% 29.98 in 10.0 mi North 6.9 mph - N/A   Clear
9:15 AM 48.2 °F - 40.5 °F 75% 29.98 in 10.0 mi North 5.8 mph - N/A   Clear
9:35 AM 49.8 °F - 41.2 °F 72% 29.98 in 10.0 mi NNE 4.6 mph - N/A   Clear
9:55 AM 52.5 °F - 41.7 °F 67% 29.98 in 10.0 mi North 4.6 mph - N/A   Clear
10:15 AM 53.6 °F - 39.4 °F 59% 29.98 in 10.0 mi NNW 8.1 mph - N/A   Clear
10:35 AM 55.2 °F - 40.3 °F 57% 29.98 in 10.0 mi North 6.9 mph - N/A   Clear
10:55 AM 56.1 °F - 39.4 °F 53% 29.98 in 10.0 mi North 3.5 mph - N/A   Clear
11:15 AM 57.0 °F - 38.3 °F 50% 29.98 in 10.0 mi North 5.8 mph - N/A   Clear
11:35 AM 58.5 °F - 39.9 °F 50% 29.98 in 10.0 mi Calm Calm - N/A   Clear
11:55 AM 59.2 °F - 38.3 °F 46% 29.98 in 10.0 mi North 3.5 mph - N/A   Clear
12:15 PM 60.3 °F - 38.1 °F 44% 29.98 in 10.0 mi Calm Calm - N/A   Clear
12:35 PM 61.9 °F - 39.2 °F 43% 29.97 in 10.0 mi NNE 6.9 mph - N/A   Clear
12:55 PM 62.4 °F - 39.0 °F 42% 29.97 in 10.0 mi ENE 3.5 mph - N/A   Clear
1:15 PM 62.8 °F - 38.3 °F 40% 29.97 in 10.0 mi East 5.8 mph - N/A   Clear
1:35 PM 63.0 °F - 37.8 °F 39% 29.97 in 10.0 mi East 3.5 mph - N/A   Clear
1:55 PM 64.9 °F - 38.7 °F 38% 29.96 in 10.0 mi North 4.6 mph - N/A   Clear
2:15 PM 64.8 °F - 37.6 °F 37% 29.96 in 10.0 mi Calm Calm - N/A   Clear
2:35 PM 65.7 °F - 39.0 °F 38% 29.95 in 10.0 mi NNE 6.9 mph - N/A   Clear
2:55 PM 66.9 °F - 39.7 °F 37% 29.95 in 10.0 mi NE 10.4 mph 17.3 mph N/A   Clear
3:15 PM 67.8 °F - 40.1 °F 36% 29.95 in 10.0 mi ENE 9.2 mph - N/A   Clear
3:35 PM 66.7 °F - 39.7 °F 37% 29.95 in 10.0 mi Calm Calm - N/A   Clear
3:55 PM 67.5 °F - 40.1 °F 37% 29.96 in 10.0 mi North 5.8 mph - N/A   Clear
4:15 PM 67.8 °F - 39.4 °F 35% 29.96 in 10.0 mi NE 6.9 mph 17.3 mph N/A   Clear
4:35 PM 67.8 °F - 39.4 °F 35% 29.95 in 10.0 mi ENE 11.5 mph 18.4 mph N/A   Clear
4:55 PM 68.4 °F - 39.4 °F 35% 29.95 in 10.0 mi ENE 11.5 mph - N/A   Clear
5:15 PM 68.0 °F - 38.1 °F 33% 29.96 in 10.0 mi ENE 10.4 mph - N/A   Clear
5:35 PM 68.0 °F - 38.7 °F 34% 29.96 in 10.0 mi East 10.4 mph 19.6 mph N/A   Clear
5:55 PM 67.8 °F - 38.8 °F 35% 29.95 in 10.0 mi ENE 16.1 mph 19.6 mph N/A   Clear
6:15 PM 66.7 °F - 38.7 °F 36% 29.96 in 10.0 mi ENE 13.8 mph - N/A   Clear
6:35 PM 66.7 °F - 38.8 °F 36% 29.97 in 10.0 mi East 10.4 mph 18.4 mph N/A   Clear
6:55 PM 65.8 °F - 39.2 °F 38% 29.97 in 10.0 mi ENE 16.1 mph - N/A   Clear
7:15 PM 64.9 °F - 38.8 °F 38% 29.97 in 10.0 mi ENE 13.8 mph 21.9 mph N/A   Clear
7:35 PM 63.9 °F - 40.1 °F 42% 29.99 in 10.0 mi ENE 16.1 mph - N/A   Clear
7:55 PM 61.9 °F - 42.1 °F 48% 30.00 in 10.0 mi ENE 18.4 mph 24.2 mph N/A   Clear
8:15 PM 59.9 °F - 43.2 °F 54% 30.00 in 10.0 mi ENE 18.4 mph - N/A   Clear
8:35 PM 57.6 °F - 43.9 °F 60% 30.02 in 10.0 mi ENE 17.3 mph - N/A   Clear
8:55 PM 55.4 °F - 43.9 °F 65% 30.02 in 10.0 mi ENE 18.4 mph 23.0 mph N/A   Clear
9:15 PM 53.4 °F - 43.9 °F 70% 30.03 in 10.0 mi ENE 16.1 mph - N/A   Clear
9:35 PM 52.0 °F - 43.7 °F 73% 30.04 in 10.0 mi ENE 16.1 mph - N/A   Clear
9:55 PM 50.5 °F - 44.1 °F 78% 30.05 in 10.0 mi ENE 16.1 mph - N/A   Clear
10:15 PM 49.6 °F - 43.7 °F 80% 30.05 in 10.0 mi ENE 15.0 mph - N/A   Scattered Clouds
10:35 PM 48.6 °F - 43.7 °F 83% 30.07 in 10.0 mi ENE 12.7 mph - N/A   Scattered Clouds
10:55 PM 47.7 °F - 43.3 °F 85% 30.08 in 10.0 mi ENE 12.7 mph - N/A   Scattered Clouds
11:15 PM 47.7 °F - 43.9 °F 87% 30.07 in 10.0 mi ENE 18.4 mph - N/A   Mostly Cloudy
11:35 PM 47.5 °F - 43.7 °F 87% 30.08 in 10.0 mi ENE 15.0 mph - N/A   Overcast
11:55 PM 47.3 °F - 43.2 °F 86% 30.08 in 10.0 mi ENE 16.1 mph 24.2 mph N/A   Overcast